Starlink 4067

operational
NORAD ID: 52668 Int'l Des: 2022-053 Owner: SPXS Country: US Constellation: starlink
LEOCIRCULAR

Starlink 4067について

説明を読み込み中...

リアルタイム位置

3D地球を読み込み中...

次回通過

高度履歴

Altitude vs Time

uPlot chart will show altitude changes over time

軌道要素

1 52668U 22053N 25303.50372365 -.00002854 00000-0 -16129-3 0 9996
2 52668 53.2180 18.5479 0001302 84.5832 275.5309 15.08842163191390
Epoch: Oct 30, 2025 • Age: 22 hours

現在のステータス

高度 555.8 km
速度 7.58 km/s
衛星直下点 -44.97°S, 135.39°E
打ち上げ日 May 18, 2022
運用期間 3.4 years
タイプ internet

技術仕様

分類 Payload
質量 297.00 kg
乾燥質量 275.00 kg
総質量 297.00 kg
長さ 0.20 m
直径 2.80 m
スパン 9.00 m
形状 Box + pan
製造者 SPXS
バスタイプ Starlink
フェーズステータス In Orbit
所有者/国 SPXS/US

大規模コンステレーション

Loading constellations...